Starlink 30092

operational
NORAD ID: 57467 Int'l Des: 2023-107 Owner: SPXS Country: US Constellation: starlink
LEOCIRCULAR

关于 Starlink 30092

正在加载描述...

实时位置

正在加载3D地球...

即将过境

高度历史

Altitude vs Time

uPlot chart will show altitude changes over time

两行轨道根数

1 57467U 23107L 25259.57965719 .00001201 00000-0 10396-3 0 9990
2 57467 43.0032 204.9526 0000979 258.4654 101.6078 15.02539837118927
Epoch: Sep 16, 2025 • Age: 11 hours

当前状态

高度 560.9 km
速度 7.59 km/s
星下点 33.58°N, 128.58°W
发射日期 Jul 28, 2023
运行时间 2.1 years
类型 internet

技术详情

分类 Payload
质量 730.00 kg
干质量 700.00 kg
总质量 730.00 kg
长度 0.30 m
直径 4.10 m
跨度 29.00 m
形状 Box + pan
制造商 SPXS
平台类型 Starlink V2M
阶段状态 In Orbit
所有者/国家 SPXS/US

大型星座

Loading constellations...